STARLINK-34456

Last updated on Thu Jul 03 2025 00:02:07 GMT+0000 (Coordinated Universal Time)

1 64439U 25130B 25183.58335648 -.01067766 00000+0 -74526-2 0 9998 2 64439 53.1554 179.8111 0001144 64.4662 38.1016 15.76109566 3522
UTC large
Height (km)
Speed (km/s)
/
Latitude / Longitude
Inclination (degrees)
Orbital Period (minutes)
Azimuth
Elevation
Range (km)
Doppler Factor

Next 0 passes for location: London (51.5072 / 0.1276)

Sorry there are no passes over London.